Miscellaneous Local Product
Issued by NWS North Platte, NE

Home | Current Version | Previous Version | Text Only | Print | Product List | Glossary On
Versions: 1 2 3 4 5 6 7 8 9 10 11 12 13 14 15 16 17 18 19 20 21 22 23 24 25 26 27 28 29 30 31 32 33 34 35 36 37 38 39 40 41 42 43 44 45 46 47 48 49 50
919
AXUS43 KLBF 241810
MISLBF


WESTERN AND NORTH CENTRAL NEBRASKA HOURLY WEATHER ROUNDUP
NATIONAL WEATHER SERVICE NORTH PLATTE NE
100 PM CDT SAT JUN 24 2017

NOTE: "FAIR" INDICATES FEW OR NO CLOUDS BELOW 12,000 FEET WITH NO
SIGNIFICANT WEATHER AND/OR OBSTRUCTIONS TO VISIBILITY.

NOTE: STATIONS NOT REPORTING VARIABLES SUCH AS SKY/WEATHER OR
PRESSURE ARE PROVIDED BY RAWS AND APRS NETWORKS AND ARE NOT UNDER
NATIONAL WEATHER SERVICE QUALITY CONTROL.

...OBSERVATIONS IN AND NEAR THE EASTERN PANHANDLE OF NEBRASKA...

CITY           SKY/WX    TMP DP  RH WIND       PRES   REMARKS
PINE RIDGE     CLOUDY    65  34  31 N9        30.30S
GORDON         CLOUDY    66  32  28 N13       30.31R
CHADRON        MOSUNNY   73  37  27 N9G16     30.29S
ALLIANCE       SUNNY     71  34  25 SW8       30.30S
SIDNEY         MOSUNNY   72  33  24 E6        30.32S
CRESCENT LAKE    N/A     69  34  27 W5G13       N/A
$$

...OBSERVATIONS IN NORTHERN NEBRASKA AND FAR SOUTHERN SOUTH DAKOTA...

CITY           SKY/WX    TMP DP  RH WIND       PRES   REMARKS
WINNER         FAIR      73  32  22 NW24G32   30.20S
VALENTINE      PTSUNNY   74  27  17 NW17G31   30.24R
THEDFORD       MOSUNNY   76  35  22 NW17G23   30.26F
AINSWORTH      CLOUDY    71  35  26 W21G28    30.24S
O`NEILL        MOSUNNY   74  34  22 W17G33    30.21S
ORD            MOSUNNY   78  33  19 W21G29    30.21F
BROKEN BOW     MOSUNNY   77  36  22 NW14G22   30.25S
VALENTINE NWR    N/A     69  33  26 NW13G22     N/A
HALSEY           N/A     75  31  20 NW10G22     N/A
BUTTE            N/A     71  35  27 NW14G31     N/A
CHAMBERS         N/A     78  38  23 CALM        N/A
EWING            N/A     73  42  33 NW12G20     N/A
$$

...OBSERVATIONS IN SOUTHWEST NEBRASKA AND FAR NORTHEAST COLORADO...

CITY           SKY/WX    TMP DP  RH WIND       PRES   REMARKS
WRAY           MOCLDY    70  45  40 S8G17     30.31S
IMPERIAL       CLOUDY    70  40  33 SE5       30.30S
OGALLALA       CLOUDY    69  38  31 SW5       30.31S
NORTH PLATTE   CLOUDY    75  35  23 MISG      30.27F
MCCOOK         CLOUDY    72  42  34 VRB3      30.29S
LEXINGTON      CLOUDY    71  38  30 SW7       30.29R
STAPLETON        N/A     74  40  29 CALM        N/A
GOTHENBURG       N/A     72  33  24 SW3         N/A
CALLAWAY         N/A     73  40  31 W12         N/A
$$

...OBSERVATIONS IN CENTRAL LINCOLN COUNTY AREA...

CITY           SKY/WX    TMP DP  RH WIND       PRES   REMARKS
N.P. AIRPORT   CLOUDY    75  35  23 MISG      30.27F
N.P. DOWNTOWN    N/A     75  40  29 CALM        N/A
N.P. SOUTHEAST   N/A     73  38  28 CALM        N/A
N.P. HILLCREST   N/A     73  38  28 W6          N/A
$$

...SOME OBSERVATIONS FROM AROUND THE REGION...

CITY           SKY/WX    TMP DP  RH WIND       PRES   REMARKS
DENVER         PTSUNNY   69  47  45 VRB3      30.33S
LIMON          CLOUDY    64  47  53 SE14      30.35R
ASPEN          SUNNY     75  24  15 MISG      30.35S
LARAMIE        SUNNY     63  33  32 VRB7      30.38S
CASPER         SUNNY     67  30  25 MISG      30.36S
CHEYENNE       SUNNY     66  37  34 VRB5      30.37S
SCOTTSBLUFF    CLOUDY    69  34  27 VRB5      30.32S
GRAND ISLAND   SUNNY     74  36  25 W12G21    30.25S
OMAHA          MOSUNNY   78  37  22 W21G26    30.17S
SIOUX FALLS    MOSUNNY   71  44  37 NW23G35   30.10R
PIERRE         MOSUNNY   69  39  33 NW22G30   30.19F
RAPID CITY     MOSUNNY   72  32  23 NW23G31   30.27S
BISMARCK       MOSUNNY   61  38  42 NW21G31   30.22R
KANSAS CITY    MOSUNNY   75  46  35 VRB3      30.24F
HILL CITY      CLOUDY    74  47  38 VRB7      30.30F
WICHITA        PTSUNNY   77  52  41 E6        30.25F
DODGE CITY     PTSUNNY   77  52  41 S15       30.28S
OKLAHOMA CITY  PTSUNNY   82  48  30 E15G22    30.21F
DALLAS         CLOUDY    77  69  76 N3        30.07F
AMARILLO       CLOUDY    64  58  80 SE15      30.32S
$$




USA.gov is the U.S. government's official web portal to all federal, state and local government web resources and services.